| time (UTC) | temp F | wind direction | speed MPH | gust MPH | rain 1hr in | rain 24hr in | rain mn in | humidity % | barometer mb |
| 20260507114711 | 50 | 0 | 0.0 | 1.0 | 0.00 | 0.00 | 0.00 | 96 | 1017.3 |
| 20260507114209 | 50 | 0 | 0.0 | 1.0 | 0.00 | 0.00 | 0.00 | 96 | 1017.3 |
| 20260507113706 | 50 | 0 | 1.0 | 1.0 | 0.00 | 0.00 | 0.00 | 97 | 1017.5 |
| 20260507113203 | 49 | 4 | 1.0 | 1.0 | 0.00 | 0.00 | 0.00 | 97 | 1017.4 |
| 20260507112700 | 49 | 11 | 0.0 | 1.0 | 0.00 | 0.00 | 0.00 | 96 | 1017.4 |
| 20260507112157 | 49 | 348 | 0.0 | 0.0 | 0.00 | 0.00 | 0.00 | 97 | 1017.3 |
| 20260507111655 | 49 | 94 | 0.0 | 0.0 | 0.00 | 0.00 | 0.00 | 96 | 1017.4 |
| 20260507111151 | 50 | 94 | 0.0 | 1.0 | 0.00 | 0.00 | 0.00 | 96 | 1017.4 |
| 20260507110647 | 50 | 339 | 1.0 | 1.0 | 0.00 | 0.00 | 0.00 | 96 | 1017.5 |
| 20260507110144 | 50 | 90 | 0.0 | 0.0 | 0.00 | 0.00 | 0.00 | 97 | 1017.6 |
| 20260507105641 | 50 | 317 | 2.0 | 2.0 | 0.00 | 0.00 | 0.00 | 97 | 1017.5 |
| 20260507105137 | 50 | 335 | 1.0 | 1.0 | 0.00 | 0.00 | 0.00 | 97 | 1017.7 |
| 20260507104634 | 50 | 32 | 0.0 | 0.0 | 0.00 | 0.00 | 0.00 | 97 | 1017.6 |
| 20260507104131 | 50 | 330 | 0.0 | 0.0 | 0.00 | 0.00 | 0.00 | 97 | 1017.6 |
| 20260507103627 | 50 | 340 | 0.0 | 0.0 | 0.00 | 0.00 | 0.00 | 97 | 1017.7 |
| 20260507103124 | 50 | 323 | 0.0 | 1.0 | 0.00 | 0.00 | 0.00 | 97 | 1017.8 |
| 20260507102620 | 50 | 323 | 1.0 | 2.0 | 0.00 | 0.00 | 0.00 | 97 | 1017.7 |
| 20260507102116 | 50 | 328 | 0.0 | 1.0 | 0.00 | 0.00 | 0.00 | 97 | 1017.9 |
| 20260507101612 | 49 | 3 | 0.0 | 0.0 | 0.00 | 0.00 | 0.00 | 97 | 1017.8 |
| 20260507101108 | 49 | 335 | 0.0 | 0.0 | 0.00 | 0.00 | 0.00 | 97 | 1017.8 |
| 20260507100605 | 49 | 335 | 0.0 | 0.0 | 0.00 | 0.00 | 0.00 | 97 | 1017.8 |
| 20260507100104 | 49 | 335 | 0.0 | 0.0 | 0.00 | 0.00 | 0.00 | 97 | 1018.0 |
| 20260507095602 | 49 | 335 | 0.0 | 0.0 | 0.00 | 0.00 | 0.00 | 97 | 1017.9 |
| 20260507095058 | 50 | 335 | 0.0 | 0.0 | 0.00 | 0.00 | 0.00 | 97 | 1018.0 |
| 20260507094554 | 50 | 334 | 0.0 | 0.0 | 0.00 | 0.00 | 0.00 | 96 | 1018.0 |
| 20260507094051 | 50 | 334 | 0.0 | 0.0 | 0.00 | 0.00 | 0.00 | 96 | 1018.0 |
| 20260507093549 | 50 | 334 | 0.0 | 1.0 | 0.00 | 0.00 | 0.00 | 96 | 1018.1 |
| 20260507093047 | 50 | 335 | 1.0 | 1.0 | 0.00 | 0.00 | 0.00 | 96 | 1018.2 |
| 20260507092543 | 49 | 45 | 0.0 | 0.0 | 0.00 | 0.00 | 0.00 | 96 | 1018.2 |
| 20260507092040 | 49 | 45 | 0.0 | 0.0 | 0.00 | 0.00 | 0.00 | 96 | 1018.1 |
| 20260507091537 | 50 | 326 | 0.0 | 0.0 | 0.00 | 0.00 | 0.00 | 96 | 1018.3 |
| 20260507091033 | 51 | 324 | 0.0 | 1.0 | 0.00 | 0.00 | 0.00 | 96 | 1018.2 |
| 20260507090529 | 51 | 324 | 2.0 | 2.0 | 0.00 | 0.00 | 0.00 | 96 | 1018.4 |
| 20260507090026 | 50 | 328 | 1.0 | 1.0 | 0.00 | 0.00 | 0.00 | 96 | 1018.5 |
| 20260507085523 | 51 | 342 | 0.0 | 1.0 | 0.00 | 0.00 | 0.00 | 96 | 1018.5 |
| 20260507085020 | 51 | 333 | 1.0 | 1.0 | 0.00 | 0.00 | 0.00 | 96 | 1018.5 |
| 20260507084516 | 51 | 345 | 1.0 | 2.0 | 0.00 | 0.00 | 0.00 | 96 | 1018.7 |
| 20260507084014 | 51 | 347 | 2.0 | 2.0 | 0.00 | 0.00 | 0.00 | 96 | 1018.6 |
| 20260507083509 | 50 | 21 | 0.0 | 0.0 | 0.00 | 0.00 | 0.00 | 96 | 1018.7 |
| 20260507083007 | 50 | 21 | 0.0 | 0.0 | 0.00 | 0.00 | 0.00 | 96 | 1018.8 |
| 20260507082503 | 50 | 21 | 0.0 | 0.0 | 0.00 | 0.00 | 0.00 | 96 | 1018.7 |
| 20260507081959 | 51 | 21 | 0.0 | 0.0 | 0.00 | 0.00 | 0.00 | 96 | 1018.8 |
| 20260507081455 | 51 | 33 | 0.0 | 0.0 | 0.00 | 0.00 | 0.00 | 96 | 1018.8 |
| 20260507080952 | 50 | 17 | 0.0 | 0.0 | 0.00 | 0.00 | 0.00 | 96 | 1018.9 |
| 20260507080448 | 51 | 17 | 0.0 | 0.0 | 0.00 | 0.00 | 0.00 | 96 | 1018.9 |
| 20260507075943 | 51 | 20 | 0.0 | 0.0 | 0.00 | 0.00 | 0.00 | 96 | 1018.7 |
| 20260507075440 | 51 | 20 | 0.0 | 0.0 | 0.00 | 0.00 | 0.00 | 96 | 1018.9 |
| 20260507074937 | 50 | 20 | 0.0 | 1.0 | 0.00 | 0.00 | 0.00 | 96 | 1018.8 |
| 20260507074434 | 51 | 21 | 0.0 | 0.0 | 0.00 | 0.00 | 0.00 | 96 | 1019.1 |
| 20260507073932 | 51 | 58 | 0.0 | 0.0 | 0.00 | 0.00 | 0.00 | 96 | 1018.9 |
| 20260507073428 | 51 | 82 | 0.0 | 0.0 | 0.00 | 0.00 | 0.00 | 96 | 1018.8 |
| 20260507072925 | 51 | 82 | 0.0 | 0.0 | 0.00 | 0.00 | 0.00 | 95 | 1018.9 |
| 20260507072422 | 51 | 81 | 0.0 | 0.0 | 0.00 | 0.00 | 0.00 | 95 | 1019.1 |
| 20260507071920 | 51 | 101 | 0.0 | 0.0 | 0.00 | 0.00 | 0.00 | 95 | 1018.9 |
| 20260507071417 | 51 | 101 | 0.0 | 0.0 | 0.00 | 0.00 | 0.00 | 94 | 1019.2 |
| 20260507070913 | 51 | 57 | 1.0 | 1.0 | 0.00 | 0.00 | 0.00 | 94 | 1019.2 |
| 20260507070410 | 51 | 97 | 0.0 | 0.0 | 0.00 | 0.00 | 0.00 | 94 | 1019.3 |
| 20260507065907 | 51 | 98 | 1.0 | 1.0 | 0.00 | 0.00 | 0.00 | 94 | 1019.2 |
| 20260507065403 | 52 | 9 | 1.0 | 2.0 | 0.00 | 0.00 | 0.00 | 94 | 1019.2 |
| 20260507064900 | 52 | 317 | 0.0 | 0.0 | 0.00 | 0.00 | 0.00 | 94 | 1019.1 |
| 20260507064359 | 52 | 328 | 0.0 | 0.0 | 0.00 | 0.00 | 0.00 | 94 | 1019.4 |
| 20260507063857 | 52 | 328 | 0.0 | 0.0 | 0.00 | 0.00 | 0.00 | 94 | 1019.3 |
| 20260507063353 | 52 | 333 | 0.0 | 0.0 | 0.00 | 0.00 | 0.00 | 94 | 1019.2 |
| 20260507062850 | 52 | 22 | 0.0 | 0.0 | 0.00 | 0.00 | 0.00 | 94 | 1019.5 |
| 20260507062347 | 53 | 313 | 0.0 | 0.0 | 0.00 | 0.00 | 0.00 | 93 | 1019.3 |
| 20260507061845 | 53 | 336 | 1.0 | 1.0 | 0.00 | 0.00 | 0.00 | 93 | 1019.3 |
| 20260507061343 | 53 | 325 | 0.0 | 0.0 | 0.00 | 0.00 | 0.00 | 93 | 1019.2 |
| 20260507060841 | 53 | 338 | 0.0 | 0.0 | 0.00 | 0.00 | 0.00 | 93 | 1019.3 |
| 20260507060337 | 53 | 54 | 0.0 | 0.0 | 0.00 | 0.00 | 0.00 | 93 | 1019.4 |
| 20260507055834 | 53 | 292 | 0.0 | 0.0 | 0.00 | 0.00 | 0.00 | 92 | 1019.4 |
| 20260507055329 | 53 | 329 | 0.0 | 0.0 | 0.00 | 0.00 | 0.00 | 92 | 1019.2 |
| 20260507054826 | 53 | 76 | 0.0 | 0.0 | 0.00 | 0.00 | 0.00 | 92 | 1019.4 |
| 20260507054322 | 53 | 95 | 0.0 | 0.0 | 0.00 | 0.00 | 0.00 | 92 | 1019.3 |
| 20260507053820 | 53 | 95 | 0.0 | 0.0 | 0.00 | 0.00 | 0.00 | 92 | 1019.3 |
| 20260507053317 | 53 | 101 | 0.0 | 0.0 | 0.00 | 0.00 | 0.00 | 91 | 1019.3 |
| 20260507052816 | 53 | 286 | 0.0 | 0.0 | 0.00 | 0.00 | 0.00 | 91 | 1019.4 |
| 20260507052312 | 53 | 298 | 0.0 | 0.0 | 0.00 | 0.00 | 0.00 | 91 | 1019.4 |
| 20260507051810 | 53 | 303 | 0.0 | 0.0 | 0.00 | 0.00 | 0.00 | 91 | 1019.4 |
| 20260507051308 | 54 | 330 | 0.0 | 0.0 | 0.00 | 0.00 | 0.00 | 90 | 1019.4 |
| 20260507050804 | 53 | 303 | 0.0 | 0.0 | 0.00 | 0.00 | 0.00 | 90 | 1019.4 |
| 20260507050300 | 54 | 303 | 0.0 | 0.0 | 0.00 | 0.00 | 0.00 | 89 | 1019.2 |
| 20260507045757 | 54 | 308 | 0.0 | 0.0 | 0.00 | 0.00 | 0.00 | 89 | 1019.2 |
| 20260507045253 | 54 | 308 | 0.0 | 0.0 | 0.00 | 0.00 | 0.00 | 89 | 1019.3 |
| 20260507044751 | 54 | 309 | 0.0 | 0.0 | 0.00 | 0.00 | 0.00 | 88 | 1019.3 |
| 20260507044247 | 54 | 302 | 0.0 | 0.0 | 0.00 | 0.00 | 0.00 | 88 | 1018.9 |
| 20260507043743 | 55 | 303 | 0.0 | 0.0 | 0.00 | 0.00 | 0.00 | 88 | 1019.2 |
| 20260507043240 | 55 | 234 | 0.0 | 0.0 | 0.00 | 0.00 | 0.00 | 87 | 1019.3 |
| 20260507042736 | 55 | 234 | 0.0 | 0.0 | 0.00 | 0.00 | 0.00 | 87 | 1019.2 |
| 20260507042232 | 55 | 234 | 0.0 | 0.0 | 0.00 | 0.00 | 0.00 | 87 | 1019.3 |
| 20260507041730 | 55 | 234 | 0.0 | 0.0 | 0.00 | 0.00 | 0.00 | 87 | 1019.1 |
| 20260507041226 | 55 | 234 | 0.0 | 0.0 | 0.00 | 0.00 | 0.00 | 86 | 1019.3 |
| 20260507040723 | 56 | 234 | 0.0 | 0.0 | 0.00 | 0.00 | 0.00 | 85 | 1019.2 |
| 20260507040219 | 56 | 265 | 0.0 | 0.0 | 0.00 | 0.00 | 0.00 | 83 | 1019.1 |
| 20260507035715 | 56 | 289 | 0.0 | 0.0 | 0.00 | 0.00 | 0.00 | 83 | 1019.1 |
| 20260507035211 | 56 | 290 | 0.0 | 0.0 | 0.00 | 0.00 | 0.00 | 82 | 1019.1 |
| 20260507034708 | 56 | 276 | 0.0 | 0.0 | 0.00 | 0.00 | 0.00 | 82 | 1019.1 |
| 20260507034205 | 57 | 274 | 0.0 | 0.0 | 0.00 | 0.00 | 0.00 | 81 | 1018.9 |
| 20260507033704 | 57 | 261 | 0.0 | 0.0 | 0.00 | 0.00 | 0.00 | 80 | 1018.7 |
| 20260507033201 | 57 | 263 | 0.0 | 0.0 | 0.00 | 0.00 | 0.00 | 80 | 1018.8 |
| 20260507032658 | 57 | 262 | 0.0 | 0.0 | 0.00 | 0.00 | 0.00 | 79 | 1018.7 |
| 20260507032154 | 58 | 261 | 0.0 | 0.0 | 0.00 | 0.00 | 0.00 | 79 | 1018.6 |
| 20260507031651 | 58 | 224 | 0.0 | 0.0 | 0.00 | 0.00 | 0.00 | 78 | 1018.6 |
| 20260507031147 | 58 | 229 | 0.0 | 0.0 | 0.00 | 0.00 | 0.00 | 78 | 1018.8 |
| 20260507030644 | 58 | 229 | 0.0 | 0.0 | 0.00 | 0.00 | 0.00 | 78 | 1018.7 |
| 20260507030142 | 59 | 229 | 0.0 | 0.0 | 0.00 | 0.00 | 0.00 | 77 | 1018.6 |
| 20260507025639 | 59 | 229 | 1.0 | 1.0 | 0.00 | 0.00 | 0.00 | 76 | 1018.6 |
| 20260507025136 | 59 | 252 | 0.0 | 0.0 | 0.00 | 0.00 | 0.00 | 75 | 1018.5 |
| 20260507024634 | 60 | 272 | 0.0 | 0.0 | 0.00 | 0.00 | 0.00 | 74 | 1018.4 |
| 20260507024131 | 60 | 263 | 0.0 | 1.0 | 0.00 | 0.00 | 0.00 | 74 | 1018.3 |
| 20260507023626 | 61 | 244 | 0.0 | 1.0 | 0.00 | 0.00 | 0.00 | 73 | 1018.4 |
| 20260507023124 | 61 | 242 | 0.0 | 0.0 | 0.00 | 0.00 | 0.00 | 72 | 1018.3 |
| 20260507022621 | 62 | 22 | 0.0 | 0.0 | 0.00 | 0.00 | 0.00 | 71 | 1018.2 |
| 20260507022116 | 62 | 266 | 0.0 | 1.0 | 0.00 | 0.00 | 0.00 | 71 | 1018.3 |
| 20260507021613 | 62 | 257 | 0.0 | 1.0 | 0.00 | 0.00 | 0.00 | 70 | 1018.2 |
| 20260507021108 | 63 | 266 | 0.0 | 2.0 | 0.00 | 0.00 | 0.00 | 69 | 1018.2 |
| 20260507020607 | 63 | 266 | 0.0 | 1.0 | 0.00 | 0.00 | 0.00 | 69 | 1018.1 |
| 20260507015602 | 64 | 278 | 0.0 | 2.0 | 0.00 | 0.00 | 0.00 | 68 | 1018.1 |
| 20260507015058 | 64 | 294 | 2.0 | 2.0 | 0.00 | 0.00 | 0.00 | 68 | 1018.3 |
| 20260507014555 | 64 | 264 | 0.0 | 1.0 | 0.00 | 0.00 | 0.00 | 68 | 1018.3 |
| 20260507014051 | 64 | 268 | 1.0 | 3.0 | 0.00 | 0.00 | 0.00 | 68 | 1018.1 |
| 20260507013548 | 65 | 257 | 3.0 | 4.0 | 0.00 | 0.00 | 0.00 | 67 | 1018.3 |
| 20260507013045 | 65 | 212 | 1.0 | 1.0 | 0.00 | 0.00 | 0.00 | 67 | 1017.9 |
| 20260507012542 | 65 | 265 | 1.0 | 2.0 | 0.00 | 0.00 | 0.00 | 67 | 1017.9 |
| 20260507012038 | 65 | 234 | 0.0 | 2.0 | 0.00 | 0.00 | 0.00 | 67 | 1018.1 |
| 20260507011536 | 66 | 251 | 0.0 | 2.0 | 0.00 | 0.00 | 0.00 | 66 | 1018.2 |
| 20260507011032 | 66 | 285 | 0.0 | 1.0 | 0.00 | 0.00 | 0.00 | 66 | 1018.0 |
| 20260507010526 | 66 | 246 | 1.0 | 2.0 | 0.00 | 0.00 | 0.00 | 66 | 1018.0 |
| 20260507010023 | 67 | 260 | 2.0 | 2.0 | 0.00 | 0.00 | 0.00 | 65 | 1018.0 |
| 20260507005521 | 67 | 309 | 1.0 | 1.0 | 0.00 | 0.00 | 0.00 | 65 | 1017.8 |
| 20260507005017 | 66 | 254 | 3.0 | 3.0 | 0.00 | 0.00 | 0.00 | 65 | 1017.8 |
| 20260507004514 | 68 | 258 | 4.0 | 4.0 | 0.00 | 0.00 | 0.00 | 63 | 1018.0 |
| 20260507004011 | 70 | 288 | 2.0 | 4.0 | 0.00 | 0.00 | 0.00 | 60 | 1017.9 |
| 20260507003506 | 69 | 246 | 0.0 | 2.0 | 0.00 | 0.00 | 0.00 | 60 | 1017.9 |
| 20260507003001 | 71 | 284 | 2.0 | 4.0 | 0.00 | 0.00 | 0.00 | 58 | 1017.9 |
| 20260507002458 | 69 | 263 | 1.0 | 4.0 | 0.00 | 0.00 | 0.00 | 60 | 1017.8 |
| 20260507001955 | 70 | 274 | 2.0 | 2.0 | 0.00 | 0.00 | 0.00 | 58 | 1018.0 |
| 20260507001451 | 71 | 245 | 1.0 | 2.0 | 0.00 | 0.00 | 0.00 | 57 | 1017.8 |
| 20260507000949 | 70 | 225 | 1.0 | 2.0 | 0.00 | 0.00 | 0.00 | 57 | 1017.6 |
| 20260507000445 | 70 | 297 | 1.0 | 4.0 | 0.00 | 0.00 | 0.00 | 58 | 1017.6 |
| 20260506235940 | 71 | 274 | 2.0 | 4.0 | 0.00 | 0.00 | 0.00 | 58 | 1017.7 |
| 20260506235438 | 70 | 209 | 3.0 | 3.0 | 0.00 | 0.00 | 0.00 | 57 | 1017.6 |
| 20260506234933 | 70 | 338 | 2.0 | 3.0 | 0.00 | 0.00 | 0.00 | 57 | 1017.6 |
| 20260506234431 | 71 | 310 | 3.0 | 4.0 | 0.00 | 0.00 | 0.00 | 56 | 1017.6 |
| 20260506233929 | 70 | 240 | 2.0 | 6.0 | 0.00 | 0.00 | 0.00 | 60 | 1017.5 |
| 20260506233425 | 71 | 259 | 4.0 | 6.0 | 0.00 | 0.00 | 0.00 | 58 | 1017.6 |
| 20260506232921 | 72 | 260 | 2.0 | 3.0 | 0.00 | 0.00 | 0.00 | 56 | 1017.6 |
| 20260506232418 | 73 | 220 | 2.0 | 4.0 | 0.00 | 0.00 | 0.00 | 54 | 1017.6 |
| 20260506231914 | 71 | 327 | 2.0 | 3.0 | 0.00 | 0.00 | 0.00 | 56 | 1017.5 |
| 20260506231412 | 71 | 243 | 1.0 | 3.0 | 0.00 | 0.00 | 0.00 | 56 | 1017.4 |
| 20260506230909 | 73 | 313 | 2.0 | 3.0 | 0.00 | 0.00 | 0.00 | 53 | 1017.5 |
| 20260506230405 | 71 | 168 | 1.0 | 4.0 | 0.00 | 0.00 | 0.00 | 55 | 1017.5 |
| 20260506225901 | 73 | 198 | 4.0 | 6.0 | 0.00 | 0.00 | 0.00 | 53 | 1017.6 |
| 20260506225359 | 73 | 273 | 2.0 | 4.0 | 0.00 | 0.00 | 0.00 | 54 | 1017.7 |
| 20260506224856 | 73 | 262 | 3.0 | 4.0 | 0.00 | 0.00 | 0.00 | 53 | 1017.6 |
| 20260506224353 | 70 | 275 | 2.0 | 6.0 | 0.00 | 0.00 | 0.00 | 57 | 1017.6 |
| 20260506223849 | 72 | 270 | 2.0 | 6.0 | 0.00 | 0.00 | 0.00 | 54 | 1017.6 |
| 20260506223344 | 71 | 188 | 2.0 | 11.0 | 0.00 | 0.00 | 0.00 | 57 | 1017.6 |
| 20260506222842 | 73 | 264 | 3.0 | 4.0 | 0.00 | 0.00 | 0.00 | 53 | 1017.9 |
| 20260506222337 | 72 | 243 | 4.0 | 13.0 | 0.00 | 0.00 | 0.00 | 58 | 1017.8 |
| 20260506221836 | 70 | 165 | 1.0 | 8.0 | 0.00 | 0.00 | 0.00 | 58 | 1017.8 |
| 20260506221333 | 72 | 248 | 2.0 | 3.0 | 0.00 | 0.00 | 0.00 | 55 | 1017.8 |
| 20260506220830 | 71 | 242 | 6.0 | 11.0 | 0.00 | 0.00 | 0.00 | 58 | 1017.8 |
| 20260506220325 | 72 | 10 | 2.0 | 8.0 | 0.00 | 0.00 | 0.00 | 55 | 1017.6 |
| 20260506215823 | 72 | 197 | 3.0 | 6.0 | 0.00 | 0.00 | 0.00 | 57 | 1017.8 |
| 20260506215318 | 71 | 235 | 7.0 | 13.0 | 0.00 | 0.00 | 0.00 | 56 | 1018.0 |
| 20260506214814 | 71 | 332 | 5.0 | 10.0 | 0.00 | 0.00 | 0.00 | 57 | 1017.8 |
| 20260506214311 | 73 | 275 | 6.0 | 8.0 | 0.00 | 0.00 | 0.00 | 52 | 1017.8 |
| 20260506213810 | 73 | 224 | 4.0 | 10.0 | 0.00 | 0.00 | 0.00 | 53 | 1018.0 |
| 20260506213306 | 74 | 279 | 2.0 | 4.0 | 0.00 | 0.00 | 0.00 | 49 | 1018.1 |
| 20260506212804 | 75 | 300 | 2.0 | 3.0 | 0.00 | 0.00 | 0.00 | 48 | 1018.0 |
| 20260506212259 | 75 | 247 | 2.0 | 6.0 | 0.00 | 0.00 | 0.00 | 48 | 1017.9 |
| 20260506211754 | 71 | 228 | 4.0 | 8.0 | 0.00 | 0.00 | 0.00 | 53 | 1018.0 |
| 20260506211251 | 73 | 192 | 2.0 | 9.0 | 0.00 | 0.00 | 0.00 | 50 | 1018.1 |
| 20260506210748 | 73 | 228 | 4.0 | 8.0 | 0.00 | 0.00 | 0.00 | 49 | 1018.3 |
| 20260506210245 | 73 | 243 | 1.0 | 9.0 | 0.00 | 0.00 | 0.00 | 49 | 1018.2 |
| 20260506205742 | 74 | 236 | 3.0 | 7.0 | 0.00 | 0.00 | 0.00 | 48 | 1018.1 |
| 20260506205238 | 75 | 248 | 2.0 | 6.0 | 0.00 | 0.00 | 0.00 | 46 | 1018.3 |
| 20260506204735 | 74 | 51 | 2.0 | 3.0 | 0.00 | 0.00 | 0.00 | 46 | 1018.2 |
| 20260506204232 | 71 | 257 | 1.0 | 6.0 | 0.00 | 0.00 | 0.00 | 48 | 1018.4 |
| 20260506203730 | 73 | 251 | 3.0 | 6.0 | 0.00 | 0.00 | 0.00 | 48 | 1018.3 |
| 20260506203227 | 74 | 289 | 1.0 | 3.0 | 0.00 | 0.00 | 0.00 | 46 | 1018.3 |
| 20260506202725 | 74 | 265 | 1.0 | 3.0 | 0.00 | 0.00 | 0.00 | 44 | 1018.4 |
| 20260506202221 | 74 | 245 | 2.0 | 7.0 | 0.00 | 0.00 | 0.00 | 46 | 1018.3 |
| 20260506201718 | 72 | 319 | 1.0 | 2.0 | 0.00 | 0.00 | 0.00 | 48 | 1018.4 |
| 20260506201214 | 72 | 278 | 2.0 | 4.0 | 0.00 | 0.00 | 0.00 | 47 | 1018.5 |
| 20260506200711 | 72 | 257 | 4.0 | 4.0 | 0.00 | 0.00 | 0.00 | 48 | 1018.7 |
| 20260506200208 | 71 | 225 | 5.0 | 8.0 | 0.00 | 0.00 | 0.00 | 49 | 1018.6 |
| 20260506195704 | 69 | 307 | 4.0 | 6.0 | 0.00 | 0.00 | 0.00 | 52 | 1018.7 |
| 20260506195201 | 71 | 211 | 3.0 | 7.0 | 0.00 | 0.00 | 0.00 | 51 | 1018.8 |
| 20260506194659 | 71 | 264 | 2.0 | 4.0 | 0.00 | 0.00 | 0.00 | 53 | 1018.8 |
| 20260506194154 | 70 | 221 | 3.0 | 4.0 | 0.00 | 0.00 | 0.00 | 55 | 1019.1 |
| 20260506193652 | 70 | 195 | 4.0 | 6.0 | 0.00 | 0.00 | 0.00 | 54 | 1018.8 |
| 20260506193149 | 69 | 275 | 2.0 | 8.0 | 0.00 | 0.00 | 0.00 | 55 | 1018.9 |
| 20260506192646 | 72 | 209 | 3.0 | 3.0 | 0.00 | 0.00 | 0.00 | 49 | 1019.1 |
| 20260506192142 | 71 | 225 | 3.0 | 4.0 | 0.00 | 0.00 | 0.00 | 52 | 1019.1 |
| 20260506191639 | 70 | 6 | 0.0 | 2.0 | 0.00 | 0.00 | 0.00 | 52 | 1019.1 |
| 20260506191135 | 70 | 312 | 2.0 | 2.0 | 0.00 | 0.00 | 0.00 | 51 | 1019.3 |
| 20260506190633 | 70 | 242 | 2.0 | 3.0 | 0.00 | 0.00 | 0.00 | 52 | 1019.2 |
| 20260506190129 | 69 | 280 | 1.0 | 3.0 | 0.00 | 0.00 | 0.00 | 53 | 1019.2 |
| 20260506185626 | 70 | 199 | 2.0 | 8.0 | 0.00 | 0.00 | 0.00 | 54 | 1019.2 |
| 20260506185122 | 69 | 284 | 2.0 | 4.0 | 0.00 | 0.00 | 0.00 | 54 | 1019.2 |
| 20260506184620 | 68 | 257 | 0.0 | 2.0 | 0.00 | 0.00 | 0.00 | 55 | 1019.2 |
| 20260506184117 | 67 | 343 | 2.0 | 3.0 | 0.00 | 0.00 | 0.00 | 54 | 1019.3 |
| 20260506183614 | 67 | 273 | 3.0 | 4.0 | 0.00 | 0.00 | 0.00 | 56 | 1019.3 |
| 20260506183110 | 68 | 293 | 0.0 | 3.0 | 0.00 | 0.00 | 0.00 | 55 | 1019.3 |
| 20260506182608 | 68 | 259 | 2.0 | 4.0 | 0.00 | 0.00 | 0.00 | 58 | 1019.4 |
| 20260506182104 | 66 | 214 | 0.0 | 2.0 | 0.00 | 0.00 | 0.00 | 58 | 1019.5 |
| 20260506181602 | 67 | 240 | 2.0 | 6.0 | 0.00 | 0.00 | 0.00 | 58 | 1019.5 |
| 20260506181059 | 65 | 314 | 2.0 | 3.0 | 0.00 | 0.00 | 0.00 | 59 | 1019.6 |
| 20260506180556 | 65 | 229 | 1.0 | 4.0 | 0.00 | 0.00 | 0.00 | 60 | 1019.7 |
| 20260506180052 | 65 | 244 | 5.0 | 6.0 | 0.00 | 0.00 | 0.00 | 58 | 1019.4 |
| 20260506175548 | 65 | 222 | 0.0 | 4.0 | 0.00 | 0.00 | 0.00 | 62 | 1019.6 |
| 20260506175044 | 65 | 264 | 5.0 | 7.0 | 0.00 | 0.00 | 0.00 | 59 | 1019.7 |
| 20260506174544 | 64 | 233 | 1.0 | 4.0 | 0.00 | 0.00 | 0.00 | 61 | 1019.7 |
| 20260506174039 | 63 | 315 | 2.0 | 6.0 | 0.00 | 0.00 | 0.00 | 64 | 1019.7 |
| 20260506173537 | 63 | 287 | 2.0 | 3.0 | 0.00 | 0.00 | 0.00 | 61 | 1019.5 |
| 20260506173034 | 63 | 263 | 3.0 | 3.0 | 0.00 | 0.00 | 0.00 | 60 | 1019.6 |
| 20260506172531 | 63 | 261 | 4.0 | 7.0 | 0.00 | 0.00 | 0.00 | 62 | 1019.8 |
| 20260506172027 | 62 | 260 | 3.0 | 7.0 | 0.00 | 0.00 | 0.00 | 63 | 1019.6 |
| 20260506171525 | 62 | 343 | 2.0 | 6.0 | 0.00 | 0.00 | 0.00 | 63 | 1019.7 |
| 20260506171022 | 63 | 280 | 1.0 | 3.0 | 0.00 | 0.00 | 0.00 | 62 | 1019.9 |
| 20260506170520 | 61 | 267 | 1.0 | 4.0 | 0.00 | 0.00 | 0.00 | 65 | 1019.6 |
| 20260506170018 | 61 | 46 | 2.0 | 4.0 | 0.00 | 0.00 | 0.00 | 66 | 1019.6 |
| 20260506165516 | 60 | 332 | 2.0 | 3.0 | 0.00 | 0.00 | 0.00 | 64 | 1019.6 |
| 20260506165011 | 59 | 266 | 4.0 | 6.0 | 0.00 | 0.00 | 0.00 | 65 | 1019.5 |
| 20260506164508 | 60 | 265 | 3.0 | 3.0 | 0.00 | 0.00 | 0.00 | 65 | 1019.7 |
| 20260506164006 | 60 | 334 | 2.0 | 4.0 | 0.00 | 0.00 | 0.00 | 67 | 1019.6 |
| 20260506163502 | 60 | 256 | 2.0 | 4.0 | 0.00 | 0.00 | 0.00 | 67 | 1019.6 |
| 20260506162956 | 57 | 177 | 3.0 | 6.0 | 0.00 | 0.00 | 0.00 | 71 | 1019.7 |
| 20260506162454 | 58 | 233 | 1.0 | 6.0 | 0.00 | 0.00 | 0.00 | 73 | 1019.8 |
| 20260506161951 | 58 | 339 | 2.0 | 3.0 | 0.00 | 0.00 | 0.00 | 69 | 1019.6 |
| 20260506161449 | 57 | 218 | 2.0 | 3.0 | 0.00 | 0.00 | 0.00 | 73 | 1019.5 |
| 20260506160946 | 57 | 256 | 2.0 | 3.0 | 0.00 | 0.00 | 0.00 | 72 | 1019.5 |
| 20260506160443 | 57 | 50 | 1.0 | 2.0 | 0.00 | 0.00 | 0.00 | 70 | 1019.5 |
| 20260506155940 | 57 | 221 | 1.0 | 3.0 | 0.00 | 0.00 | 0.00 | 73 | 1019.6 |
| 20260506155438 | 56 | 194 | 1.0 | 3.0 | 0.00 | 0.00 | 0.00 | 75 | 1019.7 |
| 20260506153605 | 55 | 265 | 2.0 | 3.0 | 0.00 | 0.00 | 0.00 | 75 | 1019.7 |
| 20260506153102 | 54 | 288 | 0.0 | 2.0 | 0.00 | 0.00 | 0.00 | 77 | 1019.7 |
| 20260506152559 | 54 | 256 | 1.0 | 3.0 | 0.00 | 0.00 | 0.00 | 77 | 1019.6 |
| 20260506152057 | 54 | 198 | 2.0 | 2.0 | 0.00 | 0.00 | 0.00 | 78 | 1019.7 |
| 20260506151555 | 53 | 267 | 1.0 | 3.0 | 0.00 | 0.00 | 0.00 | 79 | 1019.7 |
| 20260506151052 | 53 | 244 | 0.0 | 3.0 | 0.00 | 0.00 | 0.00 | 79 | 1019.7 |
| 20260506150548 | 53 | 218 | 1.0 | 3.0 | 0.00 | 0.00 | 0.00 | 80 | 1019.5 |
| 20260506150045 | 52 | 106 | 0.0 | 1.0 | 0.00 | 0.00 | 0.00 | 82 | 1019.5 |
| 20260506145542 | 51 | 103 | 2.0 | 3.0 | 0.00 | 0.00 | 0.00 | 84 | 1019.7 |
| 20260506145039 | 50 | 120 | 2.0 | 3.0 | 0.00 | 0.00 | 0.00 | 86 | 1019.8 |
| 20260506144536 | 49 | 126 | 1.0 | 2.0 | 0.00 | 0.00 | 0.00 | 89 | 1019.7 |
| 20260506144033 | 48 | 143 | 1.0 | 1.0 | 0.00 | 0.00 | 0.00 | 91 | 1019.8 |
| 20260506143531 | 47 | 144 | 1.0 | 1.0 | 0.00 | 0.00 | 0.00 | 92 | 1019.6 |
| 20260506143029 | 47 | 139 | 0.0 | 2.0 | 0.00 | 0.00 | 0.00 | 93 | 1019.5 |
| 20260506142526 | 47 | 124 | 1.0 | 2.0 | 0.00 | 0.00 | 0.00 | 95 | 1019.6 |
| 20260506142025 | 46 | 129 | 0.0 | 1.0 | 0.00 | 0.00 | 0.00 | 96 | 1019.6 |
| 20260506141522 | 45 | 137 | 1.0 | 1.0 | 0.00 | 0.00 | 0.00 | 96 | 1019.6 |
| 20260506141020 | 45 | 123 | 1.0 | 1.0 | 0.00 | 0.00 | 0.00 | 98 | 1019.6 |
| 20260506140517 | 44 | 122 | 0.0 | 0.0 | 0.00 | 0.00 | 0.00 | 98 | 1019.6 |
| 20260506140015 | 44 | 110 | 0.0 | 1.0 | 0.00 | 0.00 | 0.00 | 98 | 1019.5 |
| 20260506135511 | 43 | 110 | 0.0 | 1.0 | 0.00 | 0.00 | 0.00 | 98 | 1019.5 |
| 20260506135007 | 43 | 112 | 0.0 | 1.0 | 0.00 | 0.00 | 0.00 | 98 | 1019.5 |
| 20260506134503 | 43 | 69 | 0.0 | 0.0 | 0.00 | 0.00 | 0.00 | 99 | 1019.4 |
| 20260506134000 | 43 | 103 | 0.0 | 0.0 | 0.00 | 0.00 | 0.00 | 99 | 1019.4 |
| 20260506133457 | 42 | 80 | 0.0 | 0.0 | 0.00 | 0.00 | 0.00 | 99 | 1019.3 |
| 20260506132954 | 42 | 92 | 0.0 | 0.0 | 0.00 | 0.00 | 0.00 | 98 | 1019.5 |
| 20260506132451 | 43 | 81 | 0.0 | 0.0 | 0.00 | 0.00 | 0.00 | 99 | 1019.4 |
| 20260506131948 | 42 | 61 | 0.0 | 0.0 | 0.00 | 0.00 | 0.00 | 99 | 1019.1 |
| 20260506131445 | 42 | 356 | 0.0 | 0.0 | 0.00 | 0.00 | 0.00 | 99 | 1019.3 |
| 20260506130942 | 42 | 349 | 1.0 | 2.0 | 0.00 | 0.00 | 0.00 | 99 | 1018.8 |
| 20260506130439 | 42 | 338 | 0.0 | 0.0 | 0.00 | 0.00 | 0.00 | 99 | 1018.8 |
| 20260506125936 | 42 | 334 | 0.0 | 0.0 | 0.00 | 0.00 | 0.00 | 99 | 1019.1 |
| 20260506125434 | 42 | 334 | 0.0 | 0.0 | 0.00 | 0.00 | 0.00 | 98 | 1018.7 |
| 20260506124932 | 42 | 359 | 0.0 | 0.0 | 0.00 | 0.00 | 0.00 | 99 | 1018.9 |
| 20260506124429 | 42 | 353 | 0.0 | 0.0 | 0.00 | 0.00 | 0.00 | 98 | 1018.8 |
| 20260506123927 | 42 | 323 | 0.0 | 0.0 | 0.00 | 0.00 | 0.00 | 98 | 1018.8 |
| 20260506123425 | 42 | 323 | 0.0 | 0.0 | 0.00 | 0.00 | 0.00 | 98 | 1018.8 |
| 20260506122922 | 42 | 323 | 0.0 | 0.0 | 0.00 | 0.00 | 0.00 | 98 | 1018.7 |
| 20260506122419 | 42 | 323 | 0.0 | 0.0 | 0.00 | 0.00 | 0.00 | 98 | 1018.7 |
| 20260506121918 | 42 | 326 | 0.0 | 1.0 | 0.00 | 0.00 | 0.00 | 98 | 1018.8 |
| 20260506121414 | 42 | 354 | 0.0 | 0.0 | 0.00 | 0.00 | 0.00 | 98 | 1018.7 |
| 20260506120911 | 42 | 358 | 0.0 | 1.0 | 0.00 | 0.00 | 0.00 | 98 | 1018.7 |
| 20260506120408 | 42 | 5 | 0.0 | 0.0 | 0.00 | 0.00 | 0.00 | 98 | 1018.6 |
| 20260506115906 | 42 | 32 | 0.0 | 1.0 | 0.00 | 0.00 | 0.00 | 98 | 1018.8 |
| 20260506115404 | 42 | 55 | 0.0 | 0.0 | 0.00 | 0.00 | 0.00 | 98 | 1018.7 |